Regional Weather Roundup
Issued by NWS

Home | Current Version | Previous Version | Graphics & Text | Print | Product List | Glossary On
Versions: 1 2 3 4 5 6 7 8 9 10 11 12 13 14 15 16 17 18 19 20 21 22 23 24 25 26 27
000
ASUS45 KCYS 192110
RWRWY

WYOMING REGIONAL WEATHER ROUNDUP
NATIONAL WEATHER SERVICE CHEYENNE WY
300 PM MDT SAT MAY 19 2018

NOTE:  "FAIR" INDICATES FEW OR NO CLOUDS BELOW 12,000 FEET
WITH NO SIGNIFICANT WEATHER AND/OR OBSTRUCTIONS TO VISIBILITY.

WYZ001-192200-
YELLOWSTONE NATIONAL PARK

CITY           SKY/WX    TMP DP  RH WIND       PRES   REMARKS
LK YELLOWSTONE   N/A     50  35  56 VRB3      30.17S
W YELLOWSTONE  NOT AVBL

$$
WYZ002>013-054>058-071-098>099-192200-
NORTHERN WYOMING

CITY           SKY/WX    TMP DP  RH WIND       PRES   REMARKS
JACKSON        FAIR      59  37  44 SW13      30.10S
CODY           CLOUDY    49  38  65 NE7       30.21S
GREYBULL       LGT RAIN  52  45  77 VRB3      30.19F
WORLAND        CLOUDY    51  44  77 NE3       30.19F
SHERIDAN       FAIR      54  42  64 SE7       30.22F
BUFFALO        PTSUNNY   49  40  71 NE7       30.24F
GILLETTE         N/A     55  38  52 MISG      30.21F
NEWCASTLE      RAIN      46  45  93 SE8       30.23R

$$
WYZ014>020-022>026-101>103-192200-
CENTRAL WYOMING

CITY           SKY/WX    TMP DP  RH WIND       PRES   REMARKS
BIG PINEY      PTSUNNY   55  43  63 S15       30.15S
PINEDALE       FAIR      55  37  50 S9G23     30.15S
DUBOIS         CLOUDY    46  37  71 SE15G21   30.18S
LANDER         CLOUDY    50  42  74 E8        30.18S
RIVERTON       CLOUDY    50  42  74 E10       30.19F
CASPER         CLOUDY    47  42  83 NE8       30.21S
DOUGLAS        LGT RAIN  46  43  89 CALM      30.22S

$$
WYZ021-027>030-104>119-192200-
SOUTHERN WYOMING

CITY           SKY/WX    TMP DP  RH WIND       PRES   REMARKS
EVANSTON       FAIR      61  39  44 MISG      30.10F
KEMMERER       FAIR      54  37  54 E3        30.15S
FORT BRIDGER   CLOUDY    56  39  53 NE8       30.15F
ROCK SPRINGS   FAIR      58  39  49 NE14G24   30.11F
DIXON          FAIR      60  40  48 NE14G22   30.08R
RAWLINS        FAIR      57  39  51 NE20G30   30.14S
SARATOGA       MOCLDY    59  36  41 N7        30.11S
LARAMIE        CLOUDY    44  35  70 E7        30.18F
CHEYENNE       LGT RAIN  40  38  93 N17       30.20R WCI  31
TORRINGTON     LGT RAIN  44  43  96 N17       30.19R
PINE BLUFFS    RAIN      41  41 100 N17G23    30.19R

$$




USA.gov is the U.S. government's official web portal to all federal, state and local government web resources and services.